Regional Weather Roundup
Issued by NWS Sterling, VA

Home | Current Version | Previous Version | Text Only | Print | Product List | Glossary On
Versions: 1 2 3 4 5 6 7 8 9 10 11 12 13 14 15 16 17 18 19 20 21 22 23 24 25 26 27 28 29 30 31 32 33 34 35 36 37 38 39 40 41 42 43 44 45 46 47 48 49 50
000
ASUS41 KLWX 032310
RWRLWX

REGIONAL WEATHER ROUNDUP
NATIONAL WEATHER SERVICE BALTIMORE MD/WASHINGTON DC
600 PM EST TUE MAR 03 2015

Note: "FAIR" indicates few or no clouds below 12,000 feet
with no significant weather and/or obstructions to visibility.
 TC=TEMPERATURE CELSIUS

 * =Non NWS site. Station does not report precipitation (e.g. rain,
    snow, etc.), thunder, or fog.

DCZ001-MDZ009-015-VAZ040>042-051-053>054-040000-
WASHINGTON METRO

CITY           SKY/WX    TMP DP  RH WIND       PRES   REMARKS
WASHINGTON NAT LGT RAIN  34  25  69 S12       30.10F WCI  25
DULLES         LGT RAIN  33  20  58 S10G17    30.05F WCI  25
ANDREWS AFB    DRIZZLE   31  26  83 S9        30.09F WCI  22
FT BELVOIR     LGT RAIN  33  24  69 SE6       30.10F
QUANTICO       LGT RAIN  34  26  72 S13       30.12F WCI  25
COLLEGE PARK*  CLOUDY    32  28  86 S7        30.09F
LEESBURG*      CLOUDY    34  27  75 S14G21    30.04F WCI  24
MANASSAS*      CLOUDY    34  25  69 S8        30.09F WCI  27
GAITHERSBURG*  CLOUDY    28  23  80 S10       30.08F WCI  19

$$

MDZ006>007-011-014-040000-
BALTIMORE METRO

CITY           SKY/WX    TMP DP  RH WIND       PRES   REMARKS
BWI AIRPORT    FRZ RAIN  30  26  85 SE5       30.09F FOG
MD SCIENCE CTR   N/A     31  27  85 MISG      30.11F
MARTIN STATE   LGT RAIN  32  30  93 SE10      30.14F WCI  24
ANNAPOLIS      MIX PCPN  31  27  85 S8        30.11F FOG     WCI  23
FORT MEADE*    CLOUDY    30  28  93 S5        30.12F

$$

MDZ012-015-019>023-040000-
MARYLAND EASTERN SHORE

CITY           SKY/WX    TMP DP  RH WIND       PRES   REMARKS
OCEAN CITY     LGT RAIN  33  31  92 CALM      30.14F
SALISBURY      LGT RAIN  35  31  85 CALM      30.14F
BAY BRIDGE AP* LGT RAIN  32  30  93 S8        30.12F WCI  25
CAMBRIDGE*     CLOUDY    34  32  93 S3        30.13F
EASTON*        CLOUDY    34  34 100 SW7       30.17F FOG

$$

MDZ017>025-040000-
SOUTHERN MARYLAND

CITY           SKY/WX    TMP DP  RH WIND       PRES   REMARKS
PATUXENT RIVER LGT RAIN  33  27  78 S3        30.13F
ST INIGOES     MIX PCPN  34  25  69 S6        30.13F
LEONARDTOWN*   CLOUDY    32  28  86 CALM      30.15F

$$

MDZ003>005-040000-
NORTH CENTRAL MARYLAND

CITY           SKY/WX    TMP DP  RH WIND       PRES   REMARKS
FREDERICK*     CLOUDY    32  23  69 S9        30.07F WCI  24
HAGERSTOWN APT FRZ RAIN  31  22  69 S16       29.96F WCI  20
WESTMINSTER*   LGT SNOW  28  27  93 S12       30.01F WCI  18

$$

MDZ501>502-040000-
WESTERN MARYLAND

CITY           SKY/WX    TMP DP  RH WIND       PRES   REMARKS
OAKLAND*       FOG       45 N/A N/A SW16G25   29.78F VSB 1/4
CUMBERLAND*    CLOUDY    34  32  93 CALM      29.94F

$$

VAZ025>031-040000-
SHENANDOAH VALLEY

CITY           SKY/WX    TMP DP  RH WIND       PRES   REMARKS
WINCHESTER*    CLOUDY    36  19  51 S10G17    29.96F WCI  28
FRONT ROYAL*   CLOUDY    36  28  75 S9        29.96F WCI  29
LURAY*         MOCLDY    37  30  75 SW18G28   29.98F WCI  27
NEW MARKET*    CLOUDY    36  28  72 SW9G20    29.98F WCI  29
STAUNTON*      CLOUDY    37  28  72 S6        30.04F
WAYNESBORO*    CLOUDY    35  27  74 CALM      30.02F

$$

WVZ021-048>050-054>055-040000-
EASTERN WEST VIRGINIA PANHANDLE

CITY           SKY/WX    TMP DP  RH WIND       PRES   REMARKS
MARTINSBURG    CLOUDY    35  20  54 S9        29.96F WCI  28
PETERSBURG*    NOT AVBL

$$

VAZ036>039-050-040000-
CENTRAL FOOTHILLS

CITY           SKY/WX    TMP DP  RH WIND       PRES   REMARKS
CHARLOTTESVILL CLOUDY    35  25  66 S16       30.07F WCI  25
CULPEPER*      CLOUDY    36  21  55 S8G16     30.07F
ORANGE*        CLOUDY    36  23  60 S12G20    30.09F WCI  27
GORDONSVILLE*  CLOUDY    35  26  69 SW12      30.08F WCI  26
WARRENTON*     CLOUDY    35  28  76 S9        30.07F WCI  28

$$

VAZ055>057-040000-
NORTH AND CENTRAL PIEDMONT

CITY           SKY/WX    TMP DP  RH WIND       PRES   REMARKS
FREDERICKSBRG* LGT RAIN  37  22  55 S8        30.11F
STAFFORD*      MIX PCPN  33  21  60 S7        30.14F

$$

NCZ024-NYZ072-PAZ021-071-VAZ022-071-040000-
OTHER REGIONAL OBSERVATIONS

CITY           SKY/WX    TMP DP  RH WIND       PRES   REMARKS
NEW YORK CITY  LGT SNOW  30  24  78 VRB6      30.16F
PHILADELPHIA   FRZ RAIN  32  29  88 S7        30.13F FOG
PITTSBURGH     LGT RAIN  42  42 100 W5        29.72S FOG
ROANOKE        CLOUDY    38  33  82 S6        30.11F
RICHMOND       CLOUDY    38  26  62 S15       30.14F
RALEIGH        DRIZZLE   36  33  89 CALM      30.18F FOG

$$

ANZ530>537-040000-
MARINE OBSERVATIONS

STATION/POSITION TIME  TEMP    WIND        PRES
                       AIR SEA DIR/SP/G
                 (UTC) (F)     (DEG/KT/KT) (MB)
THOMAS PT LIGHT  2300   31 31  170/  4/  4 1020.4F
BALT KEY BRIDGE  2200   30     140/  8/ 10 1020.8F
COVE POINT       2200   30     190/  7/  8 1021.3F
LEWISETTA        2200   35 33  200/  3/  5 1021.3F
SOLOMONS ISLAND  2200      33                N/A

$$



USA.gov is the U.S. government's official web portal to all federal, state and local government web resources and services.